Sant Hilari Sacalm-Els Cortals (La Selva)





Hora UTC 22:00
Temperatura 20.7 ºC
Humitat 82.0 %
Pressió 1010.0 hPa
Pluja 0.0 mm
Velocitat vent 0.0 km/h
Direcció vent E

Dades diàries 2024-07-24



Hora UTC (hivern +1h; estiu +2h)
Temperatura (ºC) Humitat (%) Pressió (hPa) Velocitat vent (km/h) Precipitació (mm)
Hora UTC Aire Humitat Pressió Vel. Dir. Vel. Max Dir. Intent. màx 5 min.
00:05 19.9 80.0 1013.8 0.0 WSW 0.0 0.0
00:10 20.1 80.0 1013.9 0.0 WSW 0.0 0.0
00:15 20.0 80.0 1013.8 0.0 WSW 0.0 0.0
00:20 20.0 80.0 1013.8 0.0 WSW 0.0 0.0
00:25 20.0 81.0 1013.7 0.0 WSW 0.0 0.0
00:30 19.9 81.0 1013.6 0.0 WSW 0.0 0.0
00:35 20.0 81.0 1013.5 0.0 WSW 0.0 0.0
00:40 20.0 81.0 1013.5 0.0 WSW 0.0 0.0
00:45 19.9 80.0 1013.4 0.0 WSW 0.0 0.0
00:50 19.9 80.0 1013.4 0.0 WSW 0.0 0.0
00:55 19.8 80.0 1013.4 0.0 WSW 0.0 0.0
01:00 19.8 80.0 1013.4 0.0 WSW 0.0 0.0
01:05 19.8 80.0 1013.4 0.0 WSW 0.0 0.0
01:10 19.8 81.0 1013.4 0.0 WSW 0.0 0.0
01:15 19.8 81.0 1013.3 0.0 WSW 0.0 0.0
01:20 19.8 81.0 1013.3 0.0 WSW 0.0 0.0
01:25 19.8 81.0 1013.3 0.0 WSW 0.0 0.0
01:30 19.9 82.0 1013.3 0.0 WSW 0.0 0.0
01:35 20.0 82.0 1013.2 0.0 WSW 0.0 0.0
01:40 20.1 83.0 1013.2 0.0 WSW 0.0 0.0
01:45 20.1 84.0 1013.2 0.0 WSW 0.0 0.0
01:50 20.0 84.0 1013.1 0.0 WSW 0.0 0.0
01:55 19.9 85.0 1013.1 0.0 WSW 0.0 0.0
02:00 19.9 85.0 1013.0 0.0 WSW 0.0 0.0
02:05 19.8 85.0 1012.8 0.0 WSW 0.0 0.0
02:10 19.7 85.0 1012.8 0.0 WSW 0.0 0.0
02:15 19.6 85.0 1012.7 0.0 WSW 0.0 0.0
02:20 19.5 85.0 1012.7 0.0 WSW 0.0 0.0
02:25 19.4 84.0 1012.7 0.0 WSW 0.0 0.0
02:30 19.6 84.0 1012.7 0.0 WSW 0.0 0.0
02:35 19.6 84.0 1012.7 0.0 WSW 0.0 0.0
02:40 19.8 85.0 1012.7 0.0 WSW 0.0 0.0
02:45 19.9 85.0 1012.7 0.0 WSW 0.0 0.0
02:50 19.8 85.0 1012.5 0.0 WSW 0.0 0.0
02:55 19.8 85.0 1012.5 0.0 WSW 0.0 0.0
03:00 19.7 85.0 1012.5 0.0 WSW 0.0 0.0
03:05 19.7 85.0 1012.5 0.0 WSW 0.0 0.0
03:10 19.7 85.0 1012.4 0.0 WSW 0.0 0.0
03:15 19.7 85.0 1012.5 0.0 WSW 0.0 0.0
03:20 19.6 85.0 1012.4 0.0 WSW 0.0 0.0
03:25 19.4 85.0 1012.4 0.0 WSW 0.0 0.0
03:30 19.3 85.0 1012.4 0.0 WSW 0.0 0.0
03:35 19.3 86.0 1012.4 0.0 WSW 0.0 0.0
03:40 19.1 86.0 1012.4 0.0 WSW 0.0 0.0
03:45 19.0 86.0 1012.5 0.0 WSW 0.0 0.0
03:50 18.9 87.0 1012.5 0.0 WSW 0.0 0.0
03:55 18.9 87.0 1012.5 0.0 WSW 0.0 0.0
04:00 18.9 87.0 1012.6 0.0 WSW 0.0 0.0
04:05 18.8 87.0 1012.6 0.0 WSW 0.0 0.0
04:10 18.8 88.0 1012.6 0.0 WSW 0.0 0.0
04:15 18.8 88.0 1012.7 0.0 WSW 0.0 0.0
04:20 18.9 88.0 1012.6 0.0 WSW 0.0 0.0
04:25 18.9 87.0 1012.6 0.0 WSW 0.0 0.0
04:30 18.9 87.0 1012.6 0.0 WSW 0.0 0.0
04:35 18.9 87.0 1012.7 0.0 WSW 0.0 0.0
04:40 18.9 87.0 1012.6 0.0 WSW 0.0 0.0
04:45 18.9 87.0 1012.6 0.0 WSW 0.0 0.0
04:50 18.8 87.0 1012.6 0.0 WSW 0.0 0.0
04:55 18.8 87.0 1012.5 0.0 WSW 0.0 0.0
05:00 18.7 87.0 1012.5 0.0 WSW 0.0 0.0
05:05 18.6 87.0 1012.5 0.0 WSW 0.0 0.0
05:10 18.6 88.0 1012.3 0.0 WSW 0.0 0.0
05:15 18.6 87.0 1012.2 0.0 WSW 0.0 0.0
05:20 18.7 88.0 1012.3 0.0 WSW 0.0 0.0
05:25 18.9 88.0 1012.4 0.0 WSW 0.0 0.0
05:30 19.1 87.0 1012.4 0.0 W 0.0 0.0
05:35 19.3 88.0 1012.4 0.0 WNW 0.0 0.0
05:40 19.5 87.0 1012.5 0.0 WNW 0.0 0.0
05:45 19.9 87.0 1012.4 0.0 WNW 0.0 0.0
05:50 20.4 86.0 1012.4 0.0 WNW 0.0 0.0
05:55 21.0 83.0 1012.2 0.0 NW 0.0 0.0
06:00 21.4 81.0 1012.2 0.0 NW 0.0 0.0
06:05 21.7 79.0 1012.2 0.0 NW 0.0 0.0
06:10 22.0 77.0 1012.1 0.0 NNW 1.6 0.0
06:15 22.3 76.0 1012.2 0.0 NNE 8.0 0.0
06:20 22.5 75.0 1012.3 0.0 NNE 8.0 0.0
06:25 22.8 74.0 1012.3 0.0 WSW 3.2 0.0
06:30 23.1 73.0 1012.3 0.0 SSW 0.0 0.0
06:35 23.3 72.0 1012.3 0.0 NE 0.0 0.0
06:40 23.4 72.0 1012.3 0.0 NNE 6.4 0.0
06:45 23.5 72.0 1012.3 3.2 NE 8.0 0.0
06:50 23.3 72.0 1012.3 4.8 NE 8.0 0.0
06:55 23.2 72.0 1012.2 1.6 NE 8.0 0.0
07:00 23.3 72.0 1012.0 9.7 NE 9.7 0.0
07:05 23.5 72.0 1012.2 1.6 NE 9.7 0.0
07:10 23.7 72.0 1012.3 3.2 ENE 8.0 0.0
07:15 23.7 72.0 1012.3 4.8 ENE 9.7 0.0
07:20 23.6 71.0 1012.2 1.6 NE 8.0 0.0
07:25 23.8 71.0 1012.2 6.4 NE 6.4 0.0
07:30 24.0 70.0 1012.3 1.6 S 6.4 0.0
07:35 24.2 70.0 1012.0 0.0 S 3.2 0.0
07:40 24.4 68.0 1012.0 1.6 ENE 4.8 0.0
07:45 24.6 68.0 1012.1 3.2 E 8.0 0.0
07:50 24.7 68.0 1012.1 4.8 E 8.0 0.0
07:55 24.7 67.0 1012.1 1.6 E 8.0 0.0
08:00 24.8 67.0 1012.2 0.0 E 8.0 0.0
08:05 24.9 66.0 1012.0 6.4 ENE 8.0 0.0
08:10 24.8 66.0 1012.1 0.0 SW 8.0 0.0
08:15 24.9 66.0 1012.2 0.0 NNE 8.0 0.0
08:20 25.0 67.0 1012.1 0.0 ESE 8.0 0.0
08:25 25.1 67.0 1012.1 3.2 E 8.0 0.0
08:30 25.1 67.0 1012.1 3.2 SE 8.0 0.0
08:35 25.2 67.0 1012.3 3.2 S 8.0 0.0
08:40 25.4 63.0 1012.1 0.0 ENE 3.2 0.0
08:45 25.7 66.0 1012.1 4.8 W 4.8 0.0
08:50 25.7 59.0 1012.1 3.2 S 4.8 0.0
08:55 25.7 60.0 1012.0 3.2 SSW 12.9 0.0
09:00 25.9 59.0 1011.9 0.0 NNW 8.0 0.0
09:05 25.9 65.0 1012.0 6.4 E 11.3 0.0
09:10 25.8 67.0 1012.0 4.8 ENE 11.3 0.0
09:15 25.8 68.0 1012.0 8.0 ENE 11.3 0.0
09:20 25.7 67.0 1011.9 3.2 S 11.3 0.0
09:25 25.8 67.0 1011.9 3.2 ENE 9.7 0.0
09:30 25.8 67.0 1012.0 6.4 E 11.3 0.0
09:35 25.6 67.0 1012.0 0.0 SW 11.3 0.0
09:40 25.6 67.0 1011.9 8.0 NNE 11.3 0.0
09:45 25.6 68.0 1012.1 3.2 ESE 11.3 0.0
09:50 25.7 68.0 1012.1 8.0 S 11.3 0.0
09:55 25.7 65.0 1012.0 1.6 ESE 12.9 0.0
10:00 25.9 67.0 1011.9 1.6 SSE 12.9 0.0
10:05 26.1 68.0 1011.9 6.4 E 9.7 0.0
10:10 26.3 67.0 1011.9 8.0 E 12.9 0.0
10:15 26.3 66.0 1011.8 6.4 SSE 12.9 0.0
10:20 26.3 66.0 1011.8 3.2 ESE 9.7 0.0
10:25 26.3 65.0 1011.7 8.0 ESE 11.3 0.0
10:30 26.3 63.0 1011.8 6.4 SSW 14.5 0.0
10:35 26.3 63.0 1011.7 4.8 ESE 14.5 0.0
10:40 26.3 63.0 1011.7 3.2 ESE 12.9 0.0
10:45 26.2 62.0 1011.7 3.2 SW 12.9 0.0
10:50 26.5 63.0 1011.6 8.0 E 11.3 0.0
10:55 26.6 62.0 1011.4 6.4 SSE 11.3 0.0
11:00 26.4 63.0 1011.5 8.0 ESE 14.5 0.0
11:05 26.3 63.0 1011.4 3.2 ENE 14.5 0.0
11:10 26.4 63.0 1011.3 11.3 NE 12.9 0.0
11:15 26.4 65.0 1011.4 8.0 ENE 12.9 0.0
11:20 26.6 64.0 1011.5 9.7 E 16.1 0.0
11:25 26.5 65.0 1011.4 11.3 ENE 16.1 0.0
11:30 26.6 66.0 1011.5 1.6 SSE 14.5 0.0
11:35 26.4 66.0 1011.4 6.4 ESE 12.9 0.0
11:40 26.3 66.0 1011.3 3.2 S 12.9 0.0
11:45 26.3 67.0 1011.3 1.6 S 16.1 0.0
11:50 26.2 67.0 1011.2 8.0 ENE 16.1 0.0
11:55 26.3 67.0 1011.1 1.6 E 16.1 0.0
12:00 26.4 68.0 1011.2 14.5 NNE 14.5 0.0
12:05 26.3 69.0 1011.2 3.2 ENE 17.7 0.0
12:10 26.2 68.0 1011.1 3.2 SSE 17.7 0.0
12:15 26.3 70.0 1011.0 8.0 SSE 19.3 0.0
12:20 26.5 70.0 1010.9 8.0 E 19.3 0.0
12:25 26.6 69.0 1010.9 1.6 ESE 17.7 0.0
12:30 26.8 69.0 1010.7 8.0 ENE 12.9 0.0
12:35 26.8 70.0 1010.8 6.4 SSE 16.1 0.0
12:40 26.8 70.0 1010.8 3.2 N 16.1 0.0
12:45 26.8 69.0 1010.8 4.8 ESE 16.1 0.0
12:50 26.6 70.0 1010.7 9.7 ESE 14.5 0.0
12:55 26.6 70.0 1010.7 6.4 ESE 14.5 0.0
13:00 26.7 70.0 1010.5 8.0 ENE 14.5 0.0
13:05 26.5 70.0 1010.6 9.7 E 19.3 0.0
13:10 26.2 71.0 1010.6 8.0 SE 19.3 0.0
13:15 26.3 70.0 1010.7 1.6 ENE 14.5 0.0
13:20 26.2 70.0 1010.8 3.2 NE 14.5 0.0
13:25 26.2 69.0 1010.6 6.4 NNE 16.1 0.0
13:30 26.2 70.0 1010.6 8.0 ENE 16.1 0.0
13:35 26.4 68.0 1010.6 6.4 SSE 14.5 0.0
13:40 26.3 66.0 1010.5 1.6 NE 16.1 0.0
13:45 25.9 66.0 1010.5 0.0 E 16.1 0.0
13:50 25.9 66.0 1010.4 11.3 E 16.1 0.0
13:55 25.9 66.0 1010.4 3.2 E 16.1 0.0
14:00 25.9 64.0 1010.4 6.4 ENE 14.5 0.0
14:05 25.9 62.0 1010.5 1.6 ENE 14.5 0.0
14:10 25.9 63.0 1010.4 3.2 E 14.5 0.0
14:15 25.8 61.0 1010.4 4.8 ENE 14.5 0.0
14:20 25.5 63.0 1010.2 8.0 ENE 12.9 0.0
14:25 25.7 64.0 1010.2 1.6 ESE 16.1 0.0
14:30 25.9 62.0 1010.1 11.3 ENE 16.1 0.0
14:35 25.9 63.0 1010.3 14.5 SE 14.5 0.0
14:40 26.0 62.0 1010.0 8.0 ENE 14.5 0.0
14:45 26.1 63.0 1010.0 4.8 ESE 16.1 0.0
14:50 26.1 64.0 1009.9 8.0 SE 16.1 0.0
14:55 26.1 65.0 1010.1 3.2 ENE 11.3 0.0
15:00 26.0 65.0 1010.1 9.7 E 14.5 0.0
15:05 25.9 67.0 1010.2 3.2 SE 14.5 0.0
15:10 25.9 68.0 1010.2 6.4 ESE 14.5 0.0
15:15 25.7 68.0 1010.0 1.6 ENE 14.5 0.0
15:20 25.7 69.0 1010.0 1.6 NNE 16.1 0.0
15:25 25.6 70.0 1009.9 6.4 E 16.1 0.0
15:30 25.6 70.0 1010.0 3.2 NE 14.5 0.0
15:35 25.7 70.0 1009.9 6.4 NE 14.5 0.0
15:40 25.6 70.0 1009.8 3.2 E 16.1 0.0
15:45 25.5 71.0 1009.7 11.3 ENE 16.1 0.0
15:50 25.4 71.0 1009.6 3.2 NE 14.5 0.0
15:55 25.4 72.0 1009.5 3.2 E 14.5 0.0
16:00 25.3 72.0 1009.4 1.6 E 12.9 0.0
16:05 25.2 72.0 1009.3 4.8 NNE 12.9 0.0
16:10 25.2 72.0 1009.4 1.6 SE 12.9 0.0
16:15 25.2 73.0 1009.6 1.6 E 9.7 0.0
16:20 25.1 73.0 1009.4 6.4 ESE 11.3 0.0
16:25 24.9 73.0 1009.4 8.0 E 12.9 0.0
16:30 24.9 74.0 1009.4 0.0 ESE 12.9 0.0
16:35 24.8 74.0 1009.3 3.2 ENE 8.0 0.0
16:40 24.8 74.0 1009.3 1.6 E 9.7 0.0
16:45 24.8 74.0 1009.2 1.6 SE 9.7 0.0
16:50 24.8 74.0 1009.2 3.2 NE 8.0 0.0
16:55 24.7 75.0 1009.3 1.6 E 9.7 0.0
17:00 24.6 75.0 1009.3 3.2 E 8.0 0.0
17:05 24.5 75.0 1009.4 1.6 ENE 8.0 0.0
17:10 24.4 75.0 1009.2 3.2 E 8.0 0.0
17:15 24.3 76.0 1009.4 1.6 ENE 8.0 0.0
17:20 24.3 76.0 1009.4 4.8 E 8.0 0.0
17:25 24.2 76.0 1009.2 8.0 ESE 8.0 0.0
17:30 24.1 76.0 1009.1 8.0 E 8.0 0.0
17:35 24.0 76.0 1009.3 6.4 ENE 8.0 0.0
17:40 23.8 76.0 1009.2 3.2 E 8.0 0.0
17:45 23.7 76.0 1009.3 1.6 ESE 8.0 0.0
17:50 23.7 77.0 1009.2 3.2 E 6.4 0.0
17:55 23.6 77.0 1009.4 3.2 E 6.4 0.0
18:00 23.6 78.0 1009.1 1.6 ESE 6.4 0.0
18:05 23.4 77.0 1009.1 1.6 E 6.4 0.0
18:10 23.3 76.0 1009.2 0.0 E 6.4 0.0
18:15 23.2 77.0 1009.2 0.0 E 6.4 0.0
18:20 23.1 77.0 1009.3 0.0 E 3.2 0.0
18:25 22.9 76.0 1009.5 0.0 E 3.2 0.0
18:30 22.8 77.0 1009.5 0.0 E 3.2 0.0
18:35 22.8 77.0 1009.6 0.0 E 0.0 0.0
18:40 22.8 77.0 1009.5 0.0 E 1.6 0.0
18:45 22.7 78.0 1009.6 0.0 E 1.6 0.0
18:50 22.6 78.0 1009.7 0.0 E 1.6 0.0
18:55 22.4 78.0 1009.7 0.0 E 1.6 0.0
19:00 22.3 79.0 1009.6 0.0 E 0.0 0.0
19:05 22.2 80.0 1009.8 0.0 E 0.0 0.0
19:10 22.1 80.0 1009.8 0.0 E 0.0 0.0
19:15 21.9 81.0 1009.8 0.0 E 0.0 0.0
19:20 21.9 82.0 1009.7 0.0 E 0.0 0.0
19:25 21.8 82.0 1009.7 0.0 E 1.6 0.0
19:30 21.7 82.0 1009.6 0.0 E 1.6 0.0
19:35 21.7 83.0 1009.6 0.0 E 0.0 0.0
19:40 21.6 83.0 1009.7 0.0 E 0.0 0.0
19:45 21.5 83.0 1009.7 0.0 E 0.0 0.0
19:50 21.5 84.0 1009.6 0.0 E 0.0 0.0
19:55 21.5 84.0 1009.7 0.0 E 0.0 0.0
20:00 21.5 83.0 1009.7 0.0 E 0.0 0.0
20:05 21.4 83.0 1009.6 0.0 E 0.0 0.0
20:10 21.4 83.0 1009.7 0.0 E 0.0 0.0
20:15 21.4 82.0 1009.7 0.0 E 0.0 0.0
20:20 21.4 82.0 1009.8 0.0 E 0.0 0.0
20:25 21.3 81.0 1009.9 0.0 E 0.0 0.0
20:30 21.3 81.0 1009.9 0.0 E 0.0 0.0
20:35 21.2 81.0 1009.8 0.0 E 0.0 0.0
20:40 21.2 80.0 1009.9 0.0 E 0.0 0.0
20:45 21.1 80.0 1010.0 0.0 E 0.0 0.0
20:50 21.1 80.0 1010.1 0.0 E 0.0 0.0
20:55 21.0 80.0 1010.0 0.0 E 0.0 0.0
21:00 20.9 80.0 1010.1 0.0 E 0.0 0.0
21:05 20.9 81.0 1010.0 0.0 E 0.0 0.0
21:10 20.9 81.0 1010.0 0.0 E 0.0 0.0
21:15 20.9 81.0 1009.8 0.0 E 0.0 0.0
21:20 20.9 81.0 1009.8 0.0 E 0.0 0.0
21:25 20.9 81.0 1009.8 0.0 E 0.0 0.0
21:30 20.8 81.0 1009.8 0.0 E 0.0 0.0
21:35 20.8 81.0 1009.7 0.0 E 0.0 0.0
21:40 20.8 81.0 1009.7 0.0 E 0.0 0.0
21:45 20.7 81.0 1009.7 0.0 E 0.0 0.0
21:50 20.7 81.0 1009.8 0.0 E 0.0 0.0
21:55 20.7 82.0 1009.9 0.0 E 0.0 0.0
22:00 20.7 82.0 1010.0 0.0 E 0.0 0.0
Màxima 26.9 88.0 1013.9 14.5 SE 19.3 0.0
Mínima 18.6 59.0 1009.1
Total 0.0